Location: Seasalter
(51.3333°N, 1.0167°E)
Time: 11:38:18
(UTC+00:00)

Cosmos 2360 Rocket - Pass Details

Date: 26 September 2023
Orbit: 833 x 845 km, 71.0° (Epoch: 10 December)

Event Time Altitude Azimuth Distance (km) Brightness Sun altitude
Rises 04:09:09 0° 326° (NNW) 3,413 5.2 -16.0°
Reaches altitude 10° 04:11:41 10° 321° (NW) 2,475 4.4 -15.6°
Maximum altitude 04:17:05 47° 250° (WSW) 1,118 2.4 -14.8°
Drops below altitude 10° 04:22:27 10° 178° (S) 2,462 4.5 -14.0°
Sets 04:24:58 0° 172° (S) 3,392 5.3 -13.6°
